Regional Weather Roundup
Issued by NWS Charleston, WV

Home | Current Version | Previous Version | Graphics & Text | Print | Product List | Glossary On
Versions: 1 2 3 4 5 6 7 8 9 10 11 12 13 14 15 16 17 18 19 20 21 22 23 24 25 26 27 28 29 30 31 32 33 34 35 36 37 38 39 40 41 42 43 44 45 46
000
ASUS41 KRLX 250810
RWRRLX
West Virginia Regional Weather Roundup
National Weather Service Charleston WV
300 AM EST SAT FEB 25 2017

Note: "fair" indicates few or no clouds below 12,000 feet with no
significant weather and/or obstructions to visibility.

WVZ003-250900-
Northern Panhandle of West Virginia

CITY           SKY/WX    TMP DP  RH WIND       PRES   REMARKS
WHEELING       RAIN      57  51  80 W12G22    29.59R
$$

WVZ009-250900-
Northwest West Virginia

CITY           SKY/WX    TMP DP  RH WIND       PRES   REMARKS
PARKERSBURG    LGT RAIN  58  54  86 SW6       29.63R FOG
$$

WVZ006-250900-
Western West Virginia

CITY           SKY/WX    TMP DP  RH WIND       PRES   REMARKS
HUNTINGTON     TSTM      58  56  93 SW8       29.63R FOG
$$

WVZ015-250900-
West Central West Virginia

CITY           SKY/WX    TMP DP  RH WIND       PRES   REMARKS
CHARLESTON     CLOUDY    67  48  50 NW12G23   29.61R
$$

WVZ022-031-250900-
North Central West Virginia

CITY           SKY/WX    TMP DP  RH WIND       PRES   REMARKS
CLARKSBURG     PTCLDY    65  48  54 S10       29.59F
MORGANTOWN     CLEAR     64  47  53 VRB7      29.60F
$$

WVZ025-035-042-045-250900-
Southern West Virginia

CITY           SKY/WX    TMP DP  RH WIND       PRES   REMARKS
BECKLEY        PTCLDY    57  48  72 S9        29.69F
LOGAN            N/A     64  48  55 S9G18     29.62F
BLUEFIELD      PTCLDY    57  47  69 S8        29.72F
LEWISBURG      CLEAR     49  46  86 CALM      29.72F
$$

WVZ047-250900-
Northern Mountains of West Virginia

CITY           SKY/WX    TMP DP  RH WIND       PRES   REMARKS
ELKINS         MOCLDY    60  46  59 S7        29.68F
$$

WVZ052-250900-
Eastern Panhandle of West Virginia

CITY           SKY/WX    TMP DP  RH WIND       PRES   REMARKS
MARTINSBURG    CLOUDY    61  54  77 S7        29.67F
PETERSBURG     CLEAR     58  50  74 S6        29.68S
$$




USA.gov is the U.S. government's official web portal to all federal, state and local government web resources and services.